Terminal Aerodrome Forecast
Issued by NWS

Home | Current Version | Previous Version | Graphics & Text | Print | Product List | Glossary On
Versions: 1 2 3 4 5 6 7 8 9 10 11 12 13 14 15 16 17 18 19 20 21 22
000
FTUS42 KMHX 281100 AAA
TAFOAJ
TAF AMD
KOAJ 281141Z 2812/2912 00000KT 1/4SM FG OVC001
     FM281300 21005KT P6SM SCT250
     FM290800 21005KT 3SM BR BKN250
      AMD LTD TO CLD VIS AND WIND=

USA.gov is the U.S. government's official web portal to all federal, state and local government web resources and services.